Time,TemperatureF,DewpointF,PressureIn,WindDirection,WindDirectionDegrees,WindSpeedMPH,WindSpeedGustMPH,Humidity,HourlyPrecipIn,Conditions,Clouds,dailyrainin,SoftwareType,DateUTC
2013-04-01 00:02:00,31.0,23.0,-100.00,ESE,113,2.0,4.0,71,0.00,,,-99.99,,2013-04-01 06:02:00,
2013-04-01 00:12:00,31.0,23.0,-100.00,SE,128,2.0,4.0,71,0.00,,,-99.99,,2013-04-01 06:12:00,
2013-04-01 00:22:00,32.0,23.0,-100.00,SE,144,3.0,4.0,70,0.00,,,-99.99,,2013-04-01 06:22:00,
2013-04-01 00:33:00,32.0,23.0,-100.00,SE,136,5.0,7.0,69,0.00,,,-99.99,,2013-04-01 06:33:00,
2013-04-01 00:42:00,31.0,23.0,-100.00,ESE,116,6.0,9.0,72,0.00,,,-99.99,,2013-04-01 06:42:00,
2013-04-01 00:52:00,28.0,22.0,-100.00,East,88,4.0,7.0,76,0.00,,,-99.99,,2013-04-01 06:52:00,
2013-04-01 01:02:00,29.0,23.0,-100.00,SE,124,6.0,11.0,76,0.00,,,-99.99,,2013-04-01 07:02:00,
2013-04-01 01:12:00,30.0,23.0,-100.00,SE,136,9.0,11.0,75,0.00,,,-99.99,,2013-04-01 07:12:00,
2013-04-01 01:22:00,29.0,23.0,-100.00,SE,137,10.0,14.0,76,0.00,,,-99.99,,2013-04-01 07:22:00,
2013-04-01 01:32:00,31.0,23.0,-100.00,SE,133,16.0,23.0,73,0.00,,,-99.99,,2013-04-01 07:32:00,
2013-04-01 01:42:00,30.0,23.0,-100.00,SE,133,19.0,24.0,75,0.00,,,-99.99,,2013-04-01 07:42:00,
2013-04-01 01:52:00,30.0,23.0,-100.00,SE,131,22.0,29.0,75,0.00,,,-99.99,,2013-04-01 07:52:00,
2013-04-01 02:02:00,30.0,23.0,-100.00,SE,130,24.0,29.0,77,0.00,,,-99.99,,2013-04-01 08:02:00,
2013-04-01 02:12:00,29.0,23.0,-100.00,SE,130,23.0,29.0,78,0.00,,,-99.99,,2013-04-01 08:12:00,
2013-04-01 02:22:00,29.0,23.0,-100.00,SE,126,23.0,29.0,79,0.00,,,-99.99,,2013-04-01 08:22:00,
2013-04-01 02:32:00,29.0,23.0,-100.00,SE,124,22.0,26.0,80,0.00,,,-99.99,,2013-04-01 08:32:00,
2013-04-01 02:43:00,28.0,23.0,-100.00,ESE,123,19.0,24.0,80,0.00,,,-99.99,,2013-04-01 08:43:00,
2013-04-01 02:52:00,28.0,23.0,-100.00,ESE,112,14.0,17.0,82,0.00,,,-99.99,,2013-04-01 08:52:00,
2013-04-01 03:02:00,27.0,23.0,-100.00,East,97,12.0,16.0,84,0.00,,,-99.99,,2013-04-01 09:02:00,
2013-04-01 03:12:00,26.0,22.0,-100.00,East,95,12.0,15.0,85,0.00,,,-99.99,,2013-04-01 09:12:00,
2013-04-01 03:22:00,26.0,22.0,-100.00,ESE,110,12.0,16.0,86,0.00,,,-99.99,,2013-04-01 09:22:00,
2013-04-01 03:33:00,26.0,22.0,-100.00,ESE,114,12.0,15.0,86,0.00,,,-99.99,,2013-04-01 09:33:00,
2013-04-01 03:42:00,26.0,22.0,-100.00,ESE,119,13.0,16.0,86,0.00,,,-99.99,,2013-04-01 09:42:00,
2013-04-01 03:52:00,26.0,22.0,-100.00,ESE,114,12.0,15.0,87,0.00,,,-99.99,,2013-04-01 09:52:00,
2013-04-01 04:03:00,26.0,22.0,-100.00,ESE,116,13.0,15.0,87,0.00,,,-99.99,,2013-04-01 10:03:00,
2013-04-01 04:12:00,25.0,22.0,-100.00,ESE,102,10.0,14.0,88,0.00,,,-99.99,,2013-04-01 10:12:00,
2013-04-01 04:23:00,24.0,21.0,-100.00,East,88,6.0,9.0,90,0.00,,,-99.99,,2013-04-01 10:23:00,
2013-04-01 04:33:00,24.0,21.0,-100.00,East,95,4.0,6.0,90,0.00,,,-99.99,,2013-04-01 10:33:00,
2013-04-01 04:42:00,24.0,22.0,-100.00,SE,126,2.0,4.0,91,0.00,,,-99.99,,2013-04-01 10:42:00,
2013-04-01 04:53:00,25.0,22.0,-100.00,SSE,168,2.0,3.0,89,0.00,,,-99.99,,2013-04-01 10:53:00,
2013-04-01 05:03:00,25.0,22.0,-100.00,SSE,161,1.0,4.0,88,0.00,,,-99.99,,2013-04-01 11:03:00,
2013-04-01 05:12:00,25.0,22.0,-100.00,SSW,212,2.0,5.0,87,0.00,,,-99.99,,2013-04-01 11:12:00,
2013-04-01 05:23:00,26.0,22.0,-100.00,SSW,208,4.0,6.0,87,0.00,,,-99.99,,2013-04-01 11:23:00,
2013-04-01 05:33:00,25.0,22.0,-100.00,SW,216,2.0,4.0,86,0.00,,,-99.99,,2013-04-01 11:33:00,
2013-04-01 05:42:00,24.0,20.0,-100.00,SSW,209,3.0,6.0,84,0.00,,,-99.99,,2013-04-01 11:42:00,
2013-04-01 05:52:00,23.0,21.0,-100.00,SW,230,4.0,6.0,90,0.00,,,-99.99,,2013-04-01 11:52:00,
2013-04-01 06:02:00,24.0,22.0,-100.00,SW,217,4.0,6.0,91,0.00,,,-99.99,,2013-04-01 12:02:00,
2013-04-01 06:12:00,24.0,21.0,-100.00,SW,215,4.0,6.0,89,0.00,,,-99.99,,2013-04-01 12:12:00,
2013-04-01 06:22:00,25.0,21.0,-100.00,SW,234,3.0,6.0,86,0.00,,,-99.99,,2013-04-01 12:22:00,
2013-04-01 06:32:00,26.0,21.0,-100.00,WSW,240,2.0,4.0,84,0.00,,,-99.99,,2013-04-01 12:32:00,
2013-04-01 06:42:00,25.0,21.0,-100.00,West,274,1.0,3.0,85,0.00,,,-99.99,,2013-04-01 12:42:00,
2013-04-01 07:02:00,25.0,20.0,-100.00,West,267,2.0,4.0,82,0.00,,,-99.99,,2013-04-01 13:02:00,
2013-04-01 07:12:00,25.0,20.0,-100.00,WNW,284,2.0,4.0,83,0.00,,,-99.99,,2013-04-01 13:12:00,
2013-04-01 07:22:00,23.0,20.0,-100.00,WSW,243,4.0,6.0,87,0.00,,,-99.99,,2013-04-01 13:22:00,
2013-04-01 07:32:00,23.0,20.0,-100.00,West,260,4.0,6.0,88,0.00,,,-99.99,,2013-04-01 13:32:00,
2013-04-01 07:42:00,23.0,20.0,-100.00,WSW,248,4.0,6.0,89,0.00,,,-99.99,,2013-04-01 13:42:00,
2013-04-01 07:52:00,25.0,21.0,-100.00,SW,236,4.0,7.0,86,0.00,,,-99.99,,2013-04-01 13:52:00,
2013-04-01 08:03:00,27.0,21.0,-100.00,WSW,247,2.0,4.0,79,0.00,,,-99.99,,2013-04-01 14:03:00,
2013-04-01 08:12:00,27.0,20.0,-100.00,West,261,2.0,4.0,77,0.00,,,-99.99,,2013-04-01 14:12:00,
2013-04-01 08:22:00,28.0,21.0,-100.00,WSW,239,2.0,4.0,75,0.00,,,-99.99,,2013-04-01 14:22:00,
2013-04-01 08:32:00,29.0,22.0,-100.00,SW,217,3.0,4.0,73,0.00,,,-99.99,,2013-04-01 14:32:00,
2013-04-01 08:42:00,30.0,22.0,-100.00,SW,230,3.0,4.0,72,0.00,,,-99.99,,2013-04-01 14:42:00,
2013-04-01 08:52:00,31.0,22.0,-100.00,West,261,3.0,4.0,70,0.00,,,-99.99,,2013-04-01 14:52:00,
2013-04-01 09:03:00,31.0,23.0,-100.00,West,268,4.0,6.0,71,0.00,,,-99.99,,2013-04-01 15:03:00,
2013-04-01 09:13:00,32.0,23.0,-100.00,West,272,4.0,6.0,70,0.00,,,-99.99,,2013-04-01 15:13:00,
2013-04-01 09:22:00,34.0,22.0,-100.00,West,270,2.0,4.0,62,0.00,,,-99.99,,2013-04-01 15:22:00,
2013-04-01 09:34:00,35.0,23.0,-100.00,West,272,2.0,4.0,60,0.00,,,-99.99,,2013-04-01 15:34:00,
2013-04-01 09:43:00,37.0,24.0,-100.00,NNW,337,2.0,5.0,60,0.00,,,-99.99,,2013-04-01 15:43:00,
2013-04-01 09:53:00,37.0,24.0,-100.00,NNW,346,2.0,7.0,59,0.00,,,-99.99,,2013-04-01 15:53:00,
2013-04-01 10:03:00,38.0,25.0,-100.00,NNE,23,2.0,5.0,58,0.00,,,-99.99,,2013-04-01 16:03:00,
2013-04-01 10:13:00,38.0,25.0,-100.00,NNE,24,2.0,4.0,57,0.00,,,-99.99,,2013-04-01 16:13:00,
2013-04-01 10:23:00,39.0,26.0,-100.00,North,354,2.0,6.0,58,0.00,,,-99.99,,2013-04-01 16:23:00,
2013-04-01 10:33:00,40.0,25.0,-100.00,NW,311,3.0,6.0,55,0.00,,,-99.99,,2013-04-01 16:33:00,
2013-04-01 10:42:00,40.0,25.0,-100.00,West,277,4.0,6.0,55,0.00,,,-99.99,,2013-04-01 16:42:00,
2013-04-01 10:52:00,40.0,23.0,-100.00,WNW,292,4.0,7.0,50,0.00,,,-99.99,,2013-04-01 16:52:00,
2013-04-01 11:03:00,42.0,23.0,-100.00,WNW,291,3.0,6.0,48,0.00,,,-99.99,,2013-04-01 17:03:00,
2013-04-01 11:12:00,41.0,24.0,-100.00,WNW,298,4.0,8.0,51,0.00,,,-99.99,,2013-04-01 17:12:00,
2013-04-01 11:22:00,42.0,23.0,-100.00,WNW,298,6.0,9.0,47,0.00,,,-99.99,,2013-04-01 17:22:00,
2013-04-01 11:32:00,42.0,23.0,-100.00,WNW,294,6.0,9.0,45,0.00,,,-99.99,,2013-04-01 17:32:00,
2013-04-01 11:42:00,43.0,23.0,-100.00,NW,304,4.0,9.0,44,0.00,,,-99.99,,2013-04-01 17:42:00,
2013-04-01 11:52:00,44.0,22.0,-100.00,NW,315,6.0,12.0,41,0.00,,,-99.99,,2013-04-01 17:52:00,
2013-04-01 12:02:00,44.0,25.0,-100.00,NNW,344,5.0,11.0,47,0.00,,,-99.99,,2013-04-01 18:02:00,
2013-04-01 12:12:00,44.0,23.0,-100.00,North,357,5.0,11.0,43,0.00,,,-99.99,,2013-04-01 18:12:00,
2013-04-01 12:22:00,44.0,23.0,-100.00,NNW,336,6.0,11.0,44,0.00,,,-99.99,,2013-04-01 18:22:00,
2013-04-01 12:32:00,44.0,24.0,-100.00,NNW,344,6.0,11.0,46,0.00,,,-99.99,,2013-04-01 18:32:00,
2013-04-01 12:42:00,43.0,24.0,-100.00,NW,316,6.0,10.0,46,0.00,,,-99.99,,2013-04-01 18:42:00,
2013-04-01 12:52:00,43.0,22.0,-100.00,NNW,330,8.0,12.0,43,0.00,,,-99.99,,2013-04-01 18:52:00,
2013-04-01 13:03:00,44.0,22.0,-100.00,NNW,332,6.0,12.0,41,0.00,,,-99.99,,2013-04-01 19:03:00,
2013-04-01 13:12:00,44.0,23.0,-100.00,NNW,340,6.0,12.0,43,0.00,,,-99.99,,2013-04-01 19:12:00,
2013-04-01 13:23:00,45.0,23.0,-100.00,NW,323,6.0,12.0,42,0.00,,,-99.99,,2013-04-01 19:23:00,
2013-04-01 13:32:00,46.0,22.0,-100.00,NNW,337,4.0,9.0,39,0.00,,,-99.99,,2013-04-01 19:32:00,
2013-04-01 13:42:00,46.0,22.0,-100.00,NW,313,6.0,11.0,39,0.00,,,-99.99,,2013-04-01 19:42:00,
2013-04-01 13:52:00,45.0,23.0,-100.00,North,349,4.0,11.0,41,0.00,,,-99.99,,2013-04-01 19:52:00,
2013-04-01 14:02:00,45.0,23.0,-100.00,WNW,285,3.0,7.0,41,0.00,,,-99.99,,2013-04-01 20:02:00,
2013-04-01 14:12:00,45.0,23.0,-100.00,WNW,296,2.0,9.0,40,0.00,,,-99.99,,2013-04-01 20:12:00,
2013-04-01 14:22:00,45.0,23.0,-100.00,North,3,4.0,9.0,42,0.00,,,-99.99,,2013-04-01 20:22:00,
2013-04-01 14:32:00,45.0,23.0,-100.00,NE,40,6.0,10.0,41,0.00,,,-99.99,,2013-04-01 20:32:00,
2013-04-01 14:42:00,45.0,23.0,-100.00,ENE,64,6.0,10.0,41,0.00,,,-99.99,,2013-04-01 20:42:00,
2013-04-01 14:52:00,46.0,23.0,-100.00,NNE,14,6.0,14.0,40,0.00,,,-99.99,,2013-04-01 20:52:00,
2013-04-01 15:02:00,46.0,23.0,-100.00,NE,37,6.0,12.0,40,0.00,,,-99.99,,2013-04-01 21:02:00,
2013-04-01 15:12:00,45.0,22.0,-100.00,NE,35,7.0,12.0,40,0.00,,,-99.99,,2013-04-01 21:12:00,
2013-04-01 15:22:00,45.0,24.0,-100.00,North,8,6.0,16.0,41,0.00,,,-99.99,,2013-04-01 21:22:00,
2013-04-01 15:32:00,45.0,23.0,-100.00,North,7,5.0,10.0,42,0.00,,,-99.99,,2013-04-01 21:32:00,
2013-04-01 15:43:00,45.0,24.0,-100.00,NNW,344,4.0,9.0,42,0.00,,,-99.99,,2013-04-01 21:43:00,
2013-04-01 15:52:00,46.0,25.0,-100.00,NNE,16,9.0,15.0,42,0.00,,,-99.99,,2013-04-01 21:52:00,
2013-04-01 16:02:00,46.0,24.0,-100.00,North,8,9.0,15.0,42,0.00,,,-99.99,,2013-04-01 22:02:00,
2013-04-01 16:12:00,46.0,24.0,-100.00,North,11,9.0,15.0,41,0.00,,,-99.99,,2013-04-01 22:12:00,
2013-04-01 16:22:00,46.0,25.0,-100.00,North,349,9.0,15.0,43,0.00,,,-99.99,,2013-04-01 22:22:00,
2013-04-01 16:33:00,46.0,24.0,-100.00,NNE,17,9.0,13.0,42,0.00,,,-99.99,,2013-04-01 22:33:00,
2013-04-01 16:43:00,46.0,24.0,-100.00,North,357,9.0,15.0,42,0.00,,,-99.99,,2013-04-01 22:43:00,
2013-04-01 16:52:00,46.0,24.0,-100.00,North,350,10.0,16.0,41,0.00,,,-99.99,,2013-04-01 22:52:00,
2013-04-01 17:02:00,46.0,24.0,-100.00,North,353,10.0,14.0,42,0.00,,,-99.99,,2013-04-01 23:02:00,
2013-04-01 17:12:00,46.0,24.0,-100.00,North,8,11.0,18.0,42,0.00,,,-99.99,,2013-04-01 23:12:00,
2013-04-01 17:22:00,45.0,24.0,-100.00,North,8,14.0,21.0,44,0.00,,,-99.99,,2013-04-01 23:22:00,
2013-04-01 17:32:00,45.0,24.0,-100.00,North,10,15.0,19.0,44,0.00,,,-99.99,,2013-04-01 23:32:00,
2013-04-01 17:42:00,45.0,24.0,-100.00,North,8,14.0,18.0,44,0.00,,,-99.99,,2013-04-01 23:42:00,
2013-04-01 17:52:00,44.0,24.0,-100.00,NE,35,11.0,18.0,44,0.00,,,-99.99,,2013-04-01 23:52:00,
2013-04-01 18:02:00,44.0,26.0,-100.00,East,79,10.0,16.0,48,0.00,,,-99.99,,2013-04-02 00:02:00,
2013-04-01 18:12:00,44.0,26.0,-100.00,East,79,11.0,15.0,49,0.00,,,-99.99,,2013-04-02 00:12:00,
2013-04-01 18:22:00,43.0,26.0,-100.00,East,85,12.0,18.0,51,0.00,,,-99.99,,2013-04-02 00:22:00,
2013-04-01 18:33:00,41.0,27.0,-100.00,ESE,102,13.0,20.0,57,0.00,,,-99.99,,2013-04-02 00:33:00,
2013-04-01 18:42:00,41.0,27.0,-100.00,ESE,109,11.0,20.0,56,0.00,,,-99.99,,2013-04-02 00:42:00,
2013-04-01 18:52:00,40.0,27.0,-100.00,ESE,103,14.0,19.0,59,0.00,,,-99.99,,2013-04-02 00:52:00,
2013-04-01 19:02:00,39.0,27.0,-100.00,ESE,104,17.0,22.0,64,0.00,,,-99.99,,2013-04-02 01:02:00,
2013-04-01 19:12:00,38.0,27.0,-100.00,ESE,103,16.0,22.0,65,0.00,,,-99.99,,2013-04-02 01:12:00,
2013-04-01 19:22:00,36.0,27.0,-100.00,ESE,107,16.0,20.0,70,0.00,,,-99.99,,2013-04-02 01:22:00,
2013-04-01 19:32:00,35.0,27.0,-100.00,ESE,104,15.0,19.0,73,0.00,,,-99.99,,2013-04-02 01:32:00,
2013-04-01 19:42:00,35.0,28.0,-100.00,ESE,106,15.0,19.0,74,0.00,,,-99.99,,2013-04-02 01:42:00,
2013-04-01 19:52:00,35.0,28.0,-100.00,ESE,103,13.0,17.0,76,0.00,,,-99.99,,2013-04-02 01:52:00,
2013-04-01 20:02:00,35.0,28.0,-100.00,ESE,106,12.0,15.0,77,0.00,,,-99.99,,2013-04-02 02:02:00,
2013-04-01 20:12:00,35.0,28.0,-100.00,ESE,102,12.0,16.0,78,0.00,,,-99.99,,2013-04-02 02:12:00,
2013-04-01 20:22:00,34.0,29.0,-100.00,ESE,102,11.0,15.0,80,0.00,,,-99.99,,2013-04-02 02:22:00,
2013-04-01 20:32:00,34.0,29.0,-100.00,East,97,12.0,17.0,83,0.00,,,-99.99,,2013-04-02 02:32:00,
2013-04-01 20:42:00,33.0,29.0,-100.00,East,95,12.0,17.0,84,0.00,,,-99.99,,2013-04-02 02:42:00,
2013-04-01 20:52:00,33.0,29.0,-100.00,East,96,12.0,17.0,85,0.00,,,-99.99,,2013-04-02 02:52:00,
2013-04-01 21:02:00,33.0,29.0,-100.00,East,96,12.0,17.0,85,0.00,,,-99.99,,2013-04-02 03:02:00,
2013-04-01 21:12:00,33.0,29.0,-100.00,East,96,12.0,16.0,86,0.00,,,-99.99,,2013-04-02 03:12:00,
2013-04-01 21:22:00,33.0,30.0,-100.00,East,95,11.0,16.0,87,0.00,,,-99.99,,2013-04-02 03:22:00,
2013-04-01 21:33:00,33.0,30.0,-100.00,East,93,11.0,16.0,88,0.00,,,-99.99,,2013-04-02 03:33:00,
2013-04-01 21:43:00,33.0,30.0,-100.00,East,96,12.0,17.0,89,0.00,,,-99.99,,2013-04-02 03:43:00,
2013-04-01 21:52:00,33.0,30.0,-100.00,East,97,12.0,17.0,89,0.00,,,-99.99,,2013-04-02 03:52:00,
2013-04-01 22:03:00,33.0,30.0,-100.00,ESE,102,13.0,18.0,89,0.00,,,-99.99,,2013-04-02 04:03:00,
2013-04-01 22:13:00,33.0,30.0,-100.00,ESE,104,14.0,19.0,88,0.00,,,-99.99,,2013-04-02 04:13:00,
2013-04-01 22:22:00,33.0,30.0,-100.00,ESE,110,15.0,21.0,89,0.00,,,-99.99,,2013-04-02 04:22:00,
2013-04-01 22:32:00,33.0,30.0,-100.00,ESE,113,13.0,19.0,90,0.00,,,-99.99,,2013-04-02 04:32:00,
2013-04-01 22:42:00,32.0,30.0,-100.00,ESE,109,14.0,21.0,90,0.00,,,-99.99,,2013-04-02 04:42:00,
2013-04-01 22:52:00,32.0,29.0,-100.00,ESE,112,15.0,19.0,90,0.00,,,-99.99,,2013-04-02 04:52:00,
2013-04-01 23:02:00,31.0,29.0,-100.00,ESE,119,15.0,18.0,91,0.00,,,-99.99,,2013-04-02 05:02:00,
2013-04-01 23:12:00,31.0,29.0,-100.00,ESE,116,14.0,18.0,92,0.00,,,-99.99,,2013-04-02 05:12:00,
2013-04-01 23:22:00,31.0,29.0,-100.00,ESE,121,13.0,17.0,91,0.00,,,-99.99,,2013-04-02 05:22:00,
2013-04-01 23:32:00,31.0,29.0,-100.00,ESE,116,12.0,16.0,91,0.00,,,-99.99,,2013-04-02 05:32:00,
2013-04-01 23:42:00,31.0,28.0,-100.00,ESE,113,11.0,14.0,91,0.00,,,-99.99,,2013-04-02 05:42:00,
2013-04-01 23:52:00,31.0,29.0,-100.00,ESE,107,10.0,14.0,92,0.00,,,-99.99,,2013-04-02 05:52:00,